    Orbital elements:
    2000 JH5
    Epoch 2000 Apr. 26.0 TT = JDT 2451660.5                 Williams
    M 123.47617              (2000.0)            P               Q
    n   0.80442786     Peri.  353.31952     +0.27376522     -0.88665003
    a   1.1450154      Node    80.28425     +0.89900507     +0.09818069
    e   0.2377170      Incl.   22.21741     +0.34182232     +0.45189852
    P   1.23           H   17.7           G   0.15
    From 89 observations 2000 Apr. 16-May 6.
    
    Ephemeris:
    2000 JH5                 a,e,i = 1.15, 0.24, 22                  q = 0.8728
    Date    TT    R. A. (2000) Decl.     Delta      r     Elong.  Phase     V
    2000 04 26    15 58.22   +32 06.1    0.450    1.332   128.1    36.5    18.1
    2000 05 06    15 25.14   +29 01.2    0.444    1.354   133.8    32.5    18.0
    2000 05 16    14 53.47   +23 56.1    0.453    1.373   135.9    30.8    18.0
    2000 05 26    14 28.09   +17 31.4    0.481    1.389   133.6    31.9    18.2
    2000 06 05    14 10.90   +10 42.7    0.525    1.401   128.1    34.7    18.5
    2000 06 15    14 01.63   +04 11.1    0.584    1.410   121.2    38.0    18.8
    2000 06 25    13 58.92   -01 44.6    0.653    1.415   114.2    40.9    19.1
    2000 07 05    14 01.43   -07 01.9    0.729    1.417   107.4    43.2    19.4
    2000 07 15    14 08.15   -11 44.9    0.809    1.416   101.1    44.8    19.7
    2000 07 25    14 18.25   -15 59.0    0.890    1.410    95.2    45.8    19.9
    2000 08 04    14 31.27   -19 49.3    0.970    1.402    89.9    46.4    20.1
    2000 08 14    14 46.91   -23 19.8    1.046    1.390    84.9    46.6    20.3
    2000 08 24    15 04.98   -26 32.5    1.118    1.374    80.2    46.5    20.4
    2000 09 03    15 25.47   -29 28.6    1.184    1.355    75.9    46.2    20.5
    2000 09 13    15 48.41   -32 08.2    1.242    1.333    71.9    45.8    20.5
    2000 09 23    16 13.86   -34 29.8    1.292    1.308    68.1    45.4    20.6
    2000 10 03    16 41.95   -36 31.0    1.333    1.280    64.7    45.0    20.6
    2000 10 13    17 12.73   -38 08.4    1.364    1.249    61.6    44.6    20.6
    
    Gareth V. Williams           (C) Copyright 2000 MPC           M.P.E.C. 2000-J26
    

    Read MPEC 2000-J25 Read MPEC 2000-J27


    MPEC number:

    Enter an MPEC number in one of the following forms:

    • 1997-B01 (the full form)
    • J97B01 (the packed version of the full form)
    • B01 (the abbreviated form)